Wind_Speed
25 25 24 22 22 22 23 24 25 27 29 31 33 35 36 35 36 36 36 34 31 31 30 30 30 30 31 32 32 32 33 33 34 36 38 40 42 43 44 45 47 49 50
29 28 26 25 24 24 24 25 27 28 30 33 36 39 40 39 40 39 37 33 30 30 29 29 29 30 31 32 33 34 34 35 37 39 40 41 43 45 46 47 49 51 52
31 29 28 27 25 25 26 27 28 31 34 37 39 41 42 42 43 39 36 33 30 28 27 27 29 30 32 34 35 36 37 39 40 41 43 44 45 46 47 49 51 53 55
32 31 30 28 27 27 28 30 32 35 37 39 41 43 44 46 43 38 36 33 30 29 28 29 30 32 34 35 37 39 41 42 43 45 46 47 48 49 50 51 53 56 58
33 31 31 30 30 31 32 35 37 38 39 41 43 45 47 48 43 39 35 33 32 30 30 31 32 34 36 38 41 43 44 46 47 48 49 51 52 53 54 55 57 59 61
34 33 33 33 33 34 36 38 40 40 41 43 45 46 46 44 42 39 36 34 32 32 32 34 36 38 40 43 45 47 49 50 51 52 54 55 57 58 59 60 61 62 63
34 33 34 35 36 37 38 40 41 42 43 44 45 46 45 44 42 40 39 37 37 36 37 39 41 43 45 47 50 51 53 54 56 57 59 60 62 63 64 65 65 64 64
33 33 34 35 36 36 38 39 40 42 43 44 44 43 43 43 43 43 43 42 41 42 43 44 46 48 51 53 54 56 57 59 61 62 63 64 65 66 66 66 66 64 63
32 32 33 33 34 34 36 38 39 41 42 43 44 46 46 45 46 47 47 46 46 47 48 50 52 54 56 57 59 60 62 63 63 64 65 65 65 65 65 65 65 65 63
30 30 31 32 33 34 35 37 39 41 43 45 46 47 48 48 48 49 50 50 51 51 53 56 58 59 60 61 62 63 64 63 64 64 64 64 65 65 65 64 64 64 64
31 32 33 34 35 36 37 39 41 43 46 47 49 49 51 52 52 53 54 54 55 57 58 60 61 62 62 63 63 63 64 64 64 64 64 64 63 63 63 63 64 64 65
32 33 34 36 37 38 40 42 44 46 48 49 51 52 54 55 56 57 57 58 59 59 61 62 62 63 63 63 62 62 62 63 63 63 62 62 62 62 62 63 63 63 63
35 36 37 38 39 41 43 45 47 50 52 54 55 57 58 59 59 60 61 61 62 61 62 62 62 63 62 62 61 61 61 61 61 60 60 60 60 61 61 62 62 62 61
38 39 40 41 43 45 47 49 52 54 56 57 59 61 61 62 63 63 63 63 62 61 61 61 61 61 60 60 61 60 60 59 59 58 58 58 59 60 60 60 59 58 56
40 42 43 45 47 49 51 53 55 57 58 60 62 62 63 63 63 62 62 61 60 60 60 60 59 59 58 58 58 57 56 56 56 57 58 58 58 58 57 56 54 53 51
44 45 47 49 52 54 56 57 59 60 61 62 62 62 61 61 60 59 59 59 58 58 57 57 57 57 56 55 55 55 56 56 56 56 56 56 55 54 53 51 49 46 42
47 49 51 53 55 58 59 60 61 62 61 61 60 58 58 57 57 56 56 56 55 55 54 54 54 54 53 53 54 54 54 54 53 52 51 50 50 49 46 43 40 36 32
49 52 54 55 57 58 59 59 59 59 58 57 57 56 55 55 54 54 53 52 52 51 51 51 51 51 51 52 51 51 51 50 49 48 46 44 42 39 36 32 29 26 23
50 51 53 54 56 56 56 56 56 55 55 54 53 52 52 51 50 50 49 48 48 47 47 47 48 48 48 48 47 47 46 46 44 42 40 37 33 29 25 22 20 19 18
48 49 50 51 52 52 52 52 52 51 50 49 48 48 47 46 45 45 45 45 45 45 45 44 44 44 44 44 43 41 40 39 38 35 32 27 23 19 17 14 13 14 15
44 46 47 48 48 48 48 48 47 46 45 44 42 42 41 41 42 42 42 42 42 42 42 42 41 41 40 38 37 34 33 31 29 27 23 18 14 12 10 10 10 12 14
41 42 43 43 43 43 42 41 40 39 38 38 38 38 38 39 39 39 39 39 39 39 38 37 36 35 33 32 29 27 26 24 22 18 14 10 8 7 8 9 10 12 14
38 38 38 38 37 36 35 34 34 33 34 34 35 35 36 37 37 37 37 37 36 35 33 32 31 29 27 25 23 21 20 17 13 9 6 5 5 6 8 9 11 13 14
33 33 32 31 30 29 28 29 29 30 31 33 34 35 36 36 36 35 34 33 31 29 28 26 25 23 21 19 18 16 13 8 4 2 3 4 5 7 8 9 11 13 15
26 25 24 24 23 24 25 26 28 30 32 33 34 34 34 33 32 30 29 27 25 23 22 21 20 18 17 15 13 9 4 2 3 4 5 5 6 7 8 10 11 13 15
19 18 18 19 21 22 25 27 29 31 32 33 32 31 30 28 26 25 23 21 19 18 18 16 15 14 12 10 6 3 5 7 7 6 6 6 7 8 9 11 12 14 16
Wind_Direction
261 262 265 272 277 284 289 293 298 301 301 301 301 300 298 293 289 288 289 282 279 277 276 276 281 284 286 289 291 290 291 292 292 292 292 291 289 288 288 288 287 286 285
259 261 265 271 275 280 285 290 293 295 296 296 296 296 295 292 290 289 287 285 281 280 277 279 284 288 290 293 295 296 296 297 298 296 294 292 291 290 289 289 287 286 286
260 260 263 268 271 276 283 287 291 292 292 292 292 291 291 289 288 289 291 290 289 287 284 285 290 292 295 295 298 299 300 300 300 298 296 294 293 291 290 289 289 288 288
260 261 263 265 270 276 281 285 287 288 289 289 288 287 288 285 285 291 295 295 294 296 292 292 294 296 297 297 301 302 302 301 300 299 297 295 294 293 292 291 290 290 289
260 261 263 266 271 275 280 283 285 286 287 287 286 286 286 286 285 295 302 302 298 296 298 297 298 298 299 300 302 303 302 301 300 299 297 296 295 294 293 292 291 291 290
261 262 265 268 271 275 278 281 283 283 285 285 286 286 287 286 292 302 310 311 306 301 300 300 299 301 303 303 302 302 301 301 299 298 297 296 295 294 293 293 292 291 290
261 263 265 268 270 272 275 277 279 280 283 285 285 289 292 298 305 310 312 310 307 305 303 302 301 302 302 302 301 300 300 299 298 297 296 295 295 294 293 293 292 291 290
260 262 264 267 269 270 272 275 277 280 284 287 289 296 300 304 307 311 311 309 306 303 301 301 301 300 300 300 299 298 297 297 296 296 295 295 294 294 294 293 292 292 291
259 262 265 267 268 269 272 275 278 282 286 289 292 297 302 306 308 308 308 307 304 302 300 300 299 299 298 297 297 296 296 295 294 294 294 294 294 294 294 293 293 293 292
260 263 265 266 269 272 275 277 281 284 288 292 294 298 301 303 304 305 305 303 302 301 299 299 298 297 296 295 295 295 294 294 294 294 294 294 295 295 295 295 295 295 294
265 267 269 271 274 277 280 282 286 288 290 293 295 297 299 301 302 303 303 303 301 299 298 297 297 296 295 295 295 295 294 294 294 295 295 295 295 295 296 296 296 296 296
268 270 272 275 277 280 283 285 288 290 291 293 294 296 298 299 300 301 301 301 300 299 298 297 297 296 296 296 295 294 294 294 295 295 295 296 296 296 297 297 297 297 296
271 272 275 278 280 283 285 287 289 290 291 292 294 295 296 297 299 299 299 300 300 298 298 297 296 296 296 295 294 294 294 294 295 296 296 297 297 298 298 298 298 297 297
272 275 277 280 282 285 286 288 289 291 292 292 293 294 295 296 298 298 299 299 298 297 296 296 295 295 295 294 294 294 295 295 296 297 298 298 298 299 299 298 298 298 299
274 276 279 281 284 287 289 290 291 292 293 294 295 296 297 297 297 297 297 297 296 296 295 295 295 295 295 294 295 295 296 297 298 299 299 299 300 300 299 299 299 299 299
276 278 280 283 285 287 290 292 293 294 295 295 296 297 297 296 296 296 295 295 295 295 295 294 294 294 294 294 295 296 297 298 299 299 299 300 300 300 300 301 301 301 302
281 283 285 287 288 290 291 293 294 295 295 296 296 296 295 295 295 294 294 294 294 294 294 293 293 294 294 295 296 297 298 298 299 299 299 300 301 302 302 302 302 303 304
282 284 286 288 290 291 293 293 294 295 295 296 296 295 295 294 294 294 294 294 294 293 293 293 293 294 295 296 297 297 298 298 298 299 301 302 303 304 303 303 304 305 308
285 287 289 290 291 292 293 294 294 295 295 295 294 294 294 293 293 293 293 293 293 293 293 294 294 295 295 296 296 297 298 299 300 302 304 306 306 305 305 305 306 309 313
286 288 289 290 291 292 293 293 294 294 294 294 294 294 293 293 293 293 294 294 294 294 294 295 295 296 295 296 297 298 300 302 304 306 308 309 308 307 308 311 314 319 322
286 287 289 290 291 292 293 293 293 293 294 294 294 294 294 294 294 295 295 295 295 295 295 295 296 296 297 298 299 301 302 304 306 308 310 312 313 316 322 326 328 330 332
287 288 290 291 292 293 293 294 294 294 295 296 296 296 296 296 296 296 296 296 296 297 297 297 298 299 300 301 302 303 305 306 308 310 313 318 328 336 339 339 340 343 345
288 290 292 293 294 295 295 296 297 298 299 299 299 299 299 299 298 298 298 298 298 299 299 300 301 302 303 303 304 305 307 308 309 314 326 344 354 354 352 352 355 358 359
291 293 294 296 297 298 300 301 302 303 303 303 302 302 302 302 301 300 300 300 300 301 301 303 304 305 306 306 308 309 309 308 318 358 26 22 14 6 3 6 9 10 9
294 297 299 302 304 306 307 308 308 307 307 307 307 306 306 305 304 304 304 304 303 303 304 306 308 309 311 313 316 320 330 52 86 77 59 41 27 18 19 22 23 19 16
300 304 308 310 312 313 314 314 314 314 313 313 312 311 310 309 309 309 309 309 309 310 311 313 316 318 322 326 338 46 94 98 90 78 60 46 36 31 35 36 31 26 22
Height
5862 5863 5864 5865 5866 5866 5865 5864 5863 5861 5859 5856 5854 5851 5847 5844 5841 5837 5834 5831 5830 5829 5827 5827 5826 5825 5823 5823 5821 5819 5818 5816 5814 5812 5809 5807 5804 5802 5799 5796 5794 5791 5788
5856 5857 5858 5859 5860 5860 5859 5859 5857 5856 5854 5850 5848 5845 5841 5838 5833 5828 5824 5820 5820 5821 5820 5819 5818 5816 5815 5814 5812 5810 5809 5807 5805 5803 5800 5797 5795 5792 5789 5785 5782 5779 5775
5849 5850 5851 5852 5853 5853 5853 5852 5851 5849 5847 5844 5840 5837 5833 5828 5825 5821 5818 5815 5813 5813 5812 5811 5809 5808 5807 5805 5803 5801 5799 5797 5795 5793 5790 5787 5784 5781 5778 5774 5770 5766 5763
5842 5844 5845 5846 5846 5846 5846 5845 5844 5842 5839 5837 5833 5829 5824 5819 5815 5813 5810 5808 5806 5805 5804 5803 5801 5800 5798 5796 5794 5792 5790 5787 5785 5782 5779 5776 5772 5769 5766 5763 5758 5753 5749
5835 5837 5838 5839 5839 5839 5838 5837 5836 5834 5832 5829 5826 5821 5816 5811 5807 5804 5802 5799 5799 5798 5796 5795 5794 5792 5790 5787 5785 5782 5779 5776 5773 5770 5767 5763 5759 5756 5753 5750 5746 5740 5734
5828 5830 5831 5832 5832 5832 5831 5830 5828 5826 5824 5821 5817 5812 5807 5802 5798 5797 5795 5793 5791 5790 5789 5787 5785 5783 5781 5778 5775 5772 5768 5765 5761 5757 5754 5750 5746 5741 5737 5734 5730 5726 5720
5821 5823 5824 5825 5825 5825 5824 5822 5820 5818 5816 5813 5808 5802 5798 5794 5791 5789 5788 5786 5785 5783 5781 5779 5776 5774 5771 5768 5764 5760 5756 5752 5748 5744 5739 5735 5730 5725 5721 5717 5713 5709 5705
5815 5816 5817 5818 5818 5817 5816 5815 5813 5810 5807 5804 5800 5795 5791 5788 5784 5783 5781 5779 5777 5774 5772 5769 5766 5763 5759 5756 5752 5748 5744 5739 5734 5729 5724 5719 5714 5709 5703 5699 5694 5691 5688
5808 5809 5810 5811 5810 5810 5809 5807 5805 5802 5799 5795 5792 5788 5784 5781 5778 5776 5773 5771 5768 5765 5761 5758 5755 5751 5747 5743 5739 5734 5730 5725 5719 5714 5709 5703 5698 5692 5686 5680 5675 5672 5669
5802 5803 5803 5803 5803 5802 5800 5798 5796 5793 5790 5786 5783 5779 5776 5773 5770 5767 5764 5761 5758 5754 5751 5747 5743 5738 5734 5729 5724 5719 5714 5709 5703 5698 5693 5687 5681 5675 5669 5663 5657 5651 5648
5796 5796 5796 5795 5794 5793 5791 5789 5787 5784 5780 5777 5773 5770 5766 5763 5759 5756 5753 5749 5746 5742 5738 5733 5728 5724 5719 5714 5709 5703 5698 5693 5687 5682 5676 5671 5665 5658 5652 5646 5640 5634 5628
5788 5788 5788 5787 5786 5785 5783 5780 5778 5774 5771 5767 5763 5759 5755 5752 5748 5744 5741 5737 5732 5728 5723 5719 5714 5708 5703 5698 5693 5687 5682 5677 5672 5666 5660 5654 5649 5642 5636 5630 5623 5617 5610
5780 5779 5779 5778 5777 5776 5774 5771 5768 5765 5761 5757 5753 5749 5744 5740 5736 5732 5727 5723 5718 5713 5708 5703 5698 5693 5688 5682 5677 5671 5666 5661 5656 5651 5645 5639 5633 5627 5621 5614 5608 5601 5594
5771 5770 5769 5768 5767 5765 5763 5761 5758 5754 5750 5746 5742 5737 5732 5728 5723 5718 5713 5708 5703 5698 5693 5688 5682 5677 5672 5667 5662 5657 5652 5647 5641 5636 5631 5625 5619 5613 5606 5600 5593 5586 5580
5761 5760 5759 5758 5756 5754 5751 5749 5746 5742 5738 5734 5729 5724 5719 5714 5709 5704 5699 5693 5688 5683 5678 5673 5667 5662 5658 5653 5648 5643 5638 5633 5628 5622 5616 5610 5605 5599 5592 5586 5579 5573 5567
5751 5750 5748 5746 5744 5742 5739 5735 5732 5728 5724 5720 5715 5710 5705 5700 5695 5690 5684 5679 5674 5669 5664 5659 5654 5649 5644 5639 5634 5630 5625 5620 5615 5609 5602 5596 5591 5585 5579 5572 5566 5561 5555
5740 5739 5737 5734 5732 5729 5725 5721 5718 5714 5709 5705 5700 5696 5691 5685 5680 5675 5670 5665 5660 5655 5650 5645 5640 5636 5631 5627 5622 5617 5612 5607 5602 5597 5591 5584 5578 5573 5567 5561 5555 5551 5546
5728 5726 5724 5721 5718 5715 5711 5707 5703 5699 5694 5690 5685 5680 5675 5671 5666 5661 5656 5651 5646 5642 5637 5633 5628 5624 5619 5615 5610 5605 5600 5595 5590 5585 5580 5574 5568 5562 5558 5553 5548 5544 5541
5717 5714 5711 5708 5705 5701 5697 5693 5689 5684 5680 5675 5671 5666 5661 5656 5652 5647 5642 5638 5634 5629 5625 5621 5616 5612 5607 5603 5598 5593 5588 5583 5579 5574 5570 5565 5559 5555 5551 5547 5544 5540 5537
5705 5702 5699 5696 5692 5689 5684 5680 5675 5671 5666 5662 5657 5652 5648 5643 5639 5634 5630 5626 5622 5617 5613 5609 5605 5600 5596 5592 5587 5583 5578 5574 5569 5565 5561 5557 5553 5549 5546 5544 5541 5538 5535
5695 5692 5688 5685 5681 5677 5672 5667 5663 5658 5653 5649 5644 5640 5636 5631 5627 5623 5618 5614 5610 5606 5602 5598 5594 5589 5585 5581 5577 5574 5570 5566 5562 5558 5555 5552 5549 5546 5544 5542 5539 5537 5533
5685 5681 5678 5674 5670 5665 5661 5656 5652 5647 5643 5638 5634 5629 5625 5620 5616 5612 5607 5603 5599 5595 5591 5587 5583 5579 5576 5572 5569 5566 5563 5559 5556 5553 5551 5549 5547 5545 5543 5541 5538 5536 5532
5675 5672 5668 5664 5660 5655 5651 5647 5642 5638 5633 5629 5624 5619 5615 5610 5605 5601 5597 5593 5589 5585 5581 5578 5574 5571 5568 5565 5562 5560 5557 5554 5552 5550 5549 5548 5546 5545 5543 5541 5538 5535 5532
5666 5663 5659 5655 5651 5647 5643 5638 5634 5629 5625 5620 5615 5610 5605 5600 5595 5591 5587 5583 5580 5576 5573 5570 5567 5565 5562 5559 5557 5554 5552 5551 5550 5549 5549 5548 5547 5545 5543 5541 5539 5536 5532
5659 5655 5652 5648 5644 5640 5636 5631 5627 5622 5616 5611 5605 5600 5595 5590 5586 5582 5579 5575 5572 5569 5567 5564 5562 5559 5557 5554 5552 5550 5550 5549 5549 5549 5549 5548 5547 5546 5544 5542 5539 5536 5533
5653 5650 5647 5643 5639 5635 5630 5625 5620 5614 5608 5602 5597 5592 5587 5583 5579 5575 5572 5569 5567 5564 5562 5559 5557 5555 5553 5551 5550 5549 5549 5550 5550 5550 5550 5550 5548 5547 5545 5543 5541 5538 5534